Time,TemperatureF,DewpointF,PressureIn,WindDirection,WindDirectionDegrees,WindSpeedMPH,WindSpeedGustMPH,Humidity,HourlyPrecipIn,Conditions,Clouds,dailyrainin,SoftwareType,DateUTC
2013-02-12 00:00:00,32.1,24.7,30.00,WSW,249,10.0,10.0,74,0.00,,,0.00,Wunderground v.1.15,2013-02-12 05:00:00,
2013-02-12 00:01:00,32.1,24.7,30.00,WSW,240,9.0,13.0,74,0.00,,,0.00,Wunderground v.1.15,2013-02-12 05:01:00,
2013-02-12 00:06:00,32.0,24.6,30.00,West,268,8.0,16.0,74,0.00,,,0.00,Wunderground v.1.15,2013-02-12 05:06:00,
2013-02-12 00:08:00,32.0,24.6,30.00,West,262,9.0,16.0,74,0.00,,,0.00,Wunderground v.1.15,2013-02-12 05:08:00,
2013-02-12 00:13:00,32.0,24.6,30.01,West,267,11.0,13.0,74,0.00,,,0.00,Wunderground v.1.15,2013-02-12 05:13:00,
2013-02-12 00:19:00,31.9,24.6,30.01,West,260,12.0,14.0,74,0.00,,,0.00,Wunderground v.1.15,2013-02-12 05:19:00,
2013-02-12 00:25:00,31.9,24.6,30.01,SW,224,12.0,14.0,74,0.00,,,0.00,Wunderground v.1.15,2013-02-12 05:25:00,
2013-02-12 00:31:00,31.9,24.6,30.01,West,261,12.0,12.0,74,0.00,,,0.00,Wunderground v.1.15,2013-02-12 05:31:00,
2013-02-12 00:37:00,31.9,24.6,30.01,West,266,11.0,15.0,74,0.00,,,0.00,Wunderground v.1.15,2013-02-12 05:37:00,
2013-02-12 00:43:00,31.9,24.6,30.01,WSW,244,12.0,16.0,74,0.00,,,0.00,Wunderground v.1.15,2013-02-12 05:43:00,
2013-02-12 00:48:00,31.9,24.6,30.01,SW,234,13.0,18.0,74,0.00,,,0.00,Wunderground v.1.15,2013-02-12 05:48:00,
2013-02-12 00:54:00,31.9,24.6,30.02,WNW,291,12.0,17.0,74,0.00,,,0.00,Wunderground v.1.15,2013-02-12 05:54:00,
2013-02-12 01:00:00,31.8,24.8,30.02,West,274,9.0,9.0,75,0.00,,,0.00,Wunderground v.1.15,2013-02-12 06:00:00,
2013-02-12 01:06:00,31.8,24.8,30.02,WSW,258,9.0,25.0,75,0.00,,,0.00,Wunderground v.1.15,2013-02-12 06:06:00,
2013-02-12 01:12:00,31.8,25.1,30.02,West,263,9.0,25.0,76,0.00,,,0.00,Wunderground v.1.15,2013-02-12 06:12:00,
2013-02-12 01:17:00,31.8,25.1,30.02,WSW,240,9.0,25.0,76,0.00,,,0.00,Wunderground v.1.15,2013-02-12 06:17:00,
2013-02-12 01:23:00,31.7,25.0,30.03,WSW,257,10.0,25.0,76,0.00,,,0.00,Wunderground v.1.15,2013-02-12 06:23:00,
2013-02-12 01:29:00,31.7,25.0,30.03,WSW,255,12.0,25.0,76,0.00,,,0.00,Wunderground v.1.15,2013-02-12 06:29:00,
2013-02-12 01:35:00,31.7,25.0,30.03,West,265,10.0,25.0,76,0.00,,,0.00,Wunderground v.1.15,2013-02-12 06:35:00,
2013-02-12 01:40:00,31.6,24.9,30.03,WSW,243,9.0,25.0,76,0.00,,,0.00,Wunderground v.1.15,2013-02-12 06:40:00,
2013-02-12 01:46:00,31.6,24.9,30.03,WSW,247,10.0,25.0,76,0.00,,,0.00,Wunderground v.1.15,2013-02-12 06:46:00,
2013-02-12 01:52:00,31.5,24.8,30.03,SW,232,12.0,25.0,76,0.00,,,0.00,Wunderground v.1.15,2013-02-12 06:52:00,
2013-02-12 01:57:00,31.5,24.8,30.04,West,267,10.0,25.0,76,0.00,,,0.00,Wunderground v.1.15,2013-02-12 06:57:00,
2013-02-12 02:02:00,31.5,24.8,30.04,West,261,10.0,25.0,76,0.00,,,0.00,Wunderground v.1.15,2013-02-12 07:02:00,
2013-02-12 02:08:00,31.4,24.7,30.04,West,279,11.0,25.0,76,0.00,,,0.00,Wunderground v.1.15,2013-02-12 07:08:00,
2013-02-12 02:14:00,31.4,25.0,30.05,West,267,11.0,25.0,77,0.00,,,0.00,Wunderground v.1.15,2013-02-12 07:14:00,
2013-02-12 02:20:00,31.3,24.9,30.05,WSW,245,10.0,10.0,77,0.00,,,0.00,Wunderground v.1.15,2013-02-12 07:20:00,
2013-02-12 02:25:00,31.3,24.9,30.06,WSW,257,9.0,25.0,77,0.00,,,0.00,Wunderground v.1.15,2013-02-12 07:25:00,
2013-02-12 02:31:00,31.2,24.8,30.05,SW,225,10.0,25.0,77,0.00,,,0.00,Wunderground v.1.15,2013-02-12 07:31:00,
2013-02-12 02:37:00,31.3,24.9,30.05,WSW,254,11.0,25.0,77,0.00,,,0.00,Wunderground v.1.15,2013-02-12 07:37:00,
2013-02-12 02:43:00,31.2,24.8,30.06,WSW,249,12.0,25.0,77,0.00,,,0.00,Wunderground v.1.15,2013-02-12 07:43:00,
2013-02-12 02:49:00,31.2,24.8,30.06,WSW,252,9.0,25.0,77,0.00,,,0.00,Wunderground v.1.15,2013-02-12 07:49:00,
2013-02-12 02:55:00,31.1,24.7,30.06,West,267,10.0,25.0,77,0.00,,,0.00,Wunderground v.1.15,2013-02-12 07:55:00,
2013-02-12 03:00:00,31.0,24.6,30.05,West,261,12.0,16.0,77,0.00,,,0.00,Wunderground v.1.15,2013-02-12 08:00:00,
2013-02-12 03:06:00,30.9,24.5,30.06,WSW,253,12.0,25.0,77,0.00,,,0.00,Wunderground v.1.15,2013-02-12 08:06:00,
2013-02-12 03:12:00,30.8,24.4,30.06,West,265,12.0,25.0,77,0.00,,,0.00,Wunderground v.1.15,2013-02-12 08:12:00,
2013-02-12 03:17:00,30.8,24.4,30.06,WSW,248,10.0,25.0,77,0.00,,,0.00,Wunderground v.1.15,2013-02-12 08:17:00,
2013-02-12 03:23:00,30.7,24.7,30.06,West,267,7.0,25.0,78,0.00,,,0.00,Wunderground v.1.15,2013-02-12 08:23:00,
2013-02-12 03:29:00,30.8,24.4,30.06,West,259,8.0,25.0,77,0.00,,,0.00,Wunderground v.1.15,2013-02-12 08:29:00,
2013-02-12 03:35:00,30.8,24.4,30.06,WNW,284,12.0,25.0,77,0.00,,,0.00,Wunderground v.1.15,2013-02-12 08:35:00,
2013-02-12 03:41:00,30.8,24.1,30.06,SW,236,12.0,25.0,76,0.00,,,0.00,Wunderground v.1.15,2013-02-12 08:41:00,
2013-02-12 03:47:00,30.8,24.1,30.06,WSW,246,11.0,25.0,76,0.00,,,0.00,Wunderground v.1.15,2013-02-12 08:47:00,
2013-02-12 03:53:00,30.8,24.1,30.06,WSW,251,10.0,25.0,76,0.00,,,0.00,Wunderground v.1.15,2013-02-12 08:53:00,
2013-02-12 03:58:00,30.7,24.0,30.06,WNW,286,9.0,25.0,76,0.00,,,0.00,Wunderground v.1.15,2013-02-12 08:58:00,
2013-02-12 04:05:00,30.7,24.0,30.07,WSW,251,9.0,25.0,76,0.00,,,0.00,Wunderground v.1.15,2013-02-12 09:05:00,
2013-02-12 04:11:00,30.7,24.0,30.07,West,262,10.0,25.0,76,0.00,,,0.00,Wunderground v.1.15,2013-02-12 09:11:00,
2013-02-12 04:16:00,30.7,24.0,30.07,SW,229,11.0,25.0,76,0.00,,,0.00,Wunderground v.1.15,2013-02-12 09:16:00,
2013-02-12 04:22:00,30.7,24.0,30.08,WSW,254,12.0,25.0,76,0.00,,,0.00,Wunderground v.1.15,2013-02-12 09:22:00,
2013-02-12 04:28:00,30.6,23.9,30.08,WSW,243,11.0,25.0,76,0.00,,,0.00,Wunderground v.1.15,2013-02-12 09:28:00,
2013-02-12 04:33:00,30.6,23.6,30.08,West,259,9.0,25.0,75,0.00,,,0.00,Wunderground v.1.15,2013-02-12 09:33:00,
2013-02-12 04:39:00,30.5,23.5,30.08,WSW,250,7.0,25.0,75,0.00,,,0.00,Wunderground v.1.15,2013-02-12 09:39:00,
2013-02-12 04:45:00,30.5,23.5,30.08,WSW,250,10.0,25.0,75,0.00,,,0.00,Wunderground v.1.15,2013-02-12 09:45:00,
2013-02-12 04:51:00,30.5,23.5,30.09,West,259,12.0,25.0,75,0.00,,,0.00,Wunderground v.1.15,2013-02-12 09:51:00,
2013-02-12 04:56:00,30.5,23.5,30.08,West,276,11.0,25.0,75,0.00,,,0.00,Wunderground v.1.15,2013-02-12 09:56:00,
2013-02-12 05:02:00,30.4,23.4,30.08,WSW,250,9.0,25.0,75,0.00,,,0.00,Wunderground v.1.15,2013-02-12 10:02:00,
2013-02-12 05:08:00,30.5,23.5,30.09,West,267,11.0,25.0,75,0.00,,,0.00,Wunderground v.1.15,2013-02-12 10:08:00,
2013-02-12 05:14:00,30.4,23.4,30.09,West,259,9.0,25.0,75,0.00,,,0.00,Wunderground v.1.15,2013-02-12 10:14:00,
2013-02-12 05:20:00,30.4,23.4,30.09,WSW,242,6.0,25.0,75,0.00,,,0.00,Wunderground v.1.15,2013-02-12 10:20:00,
2013-02-12 05:25:00,30.3,23.6,30.09,West,269,8.0,25.0,76,0.00,,,0.00,Wunderground v.1.15,2013-02-12 10:25:00,
2013-02-12 05:31:00,30.3,23.6,30.09,West,269,9.0,25.0,76,0.00,,,0.00,Wunderground v.1.15,2013-02-12 10:31:00,
2013-02-12 05:37:00,30.3,23.6,30.09,West,259,8.0,25.0,76,0.00,,,0.00,Wunderground v.1.15,2013-02-12 10:37:00,
2013-02-12 05:43:00,30.2,23.9,30.09,WSW,254,8.0,25.0,77,0.00,,,0.00,Wunderground v.1.15,2013-02-12 10:43:00,
2013-02-12 05:49:00,30.2,23.9,30.09,WSW,258,7.0,25.0,77,0.00,,,0.00,Wunderground v.1.15,2013-02-12 10:49:00,
2013-02-12 05:54:00,30.2,24.2,30.09,WSW,254,8.0,25.0,78,0.00,,,0.00,Wunderground v.1.15,2013-02-12 10:54:00,
2013-02-12 06:00:00,30.2,24.2,30.10,West,281,10.0,14.0,78,0.00,,,0.00,Wunderground v.1.15,2013-02-12 11:00:00,
2013-02-12 06:06:00,30.1,24.1,30.10,West,278,9.0,14.0,78,0.00,,,0.00,Wunderground v.1.15,2013-02-12 11:06:00,
2013-02-12 06:11:00,30.1,24.1,30.11,West,274,8.0,17.0,78,0.00,,,0.00,Wunderground v.1.15,2013-02-12 11:11:00,
2013-02-12 06:17:00,30.1,24.1,30.11,WSW,257,11.0,17.0,78,0.00,,,0.00,Wunderground v.1.15,2013-02-12 11:17:00,
2013-02-12 06:23:00,30.1,24.1,30.11,West,266,12.0,16.0,78,0.00,,,0.00,Wunderground v.1.15,2013-02-12 11:23:00,
2013-02-12 06:29:00,30.0,24.0,30.11,West,261,10.0,16.0,78,0.00,,,0.00,Wunderground v.1.15,2013-02-12 11:29:00,
2013-02-12 06:35:00,29.9,23.9,30.11,NNW,331,10.0,15.0,78,0.00,,,0.00,Wunderground v.1.15,2013-02-12 11:35:00,
2013-02-12 06:41:00,29.9,23.9,30.11,WSW,258,9.0,11.0,78,0.00,,,0.00,Wunderground v.1.15,2013-02-12 11:41:00,
2013-02-12 06:46:00,29.9,23.9,30.12,West,269,9.0,17.0,78,0.00,,,0.00,Wunderground v.1.15,2013-02-12 11:46:00,
2013-02-12 06:52:00,29.9,23.9,30.12,West,261,10.0,10.0,78,0.00,,,0.00,Wunderground v.1.15,2013-02-12 11:52:00,
2013-02-12 06:58:00,29.8,23.8,30.12,NNW,342,9.0,13.0,78,0.00,,,0.00,Wunderground v.1.15,2013-02-12 11:58:00,
2013-02-12 07:04:00,29.8,23.5,30.13,SW,236,10.0,18.0,77,0.00,,,0.00,Wunderground v.1.15,2013-02-12 12:04:00,
2013-02-12 07:09:00,29.8,23.5,30.13,West,259,10.0,18.0,77,0.00,,,0.00,Wunderground v.1.15,2013-02-12 12:09:00,
2013-02-12 07:15:00,29.8,23.5,30.13,West,263,10.0,18.0,77,0.00,,,0.00,Wunderground v.1.15,2013-02-12 12:15:00,
2013-02-12 07:21:00,29.7,23.4,30.13,WSW,248,10.0,18.0,77,0.00,,,0.00,Wunderground v.1.15,2013-02-12 12:21:00,
2013-02-12 07:27:00,29.6,23.6,30.14,WSW,258,10.0,18.0,78,0.00,,,0.00,Wunderground v.1.15,2013-02-12 12:27:00,
2013-02-12 07:33:00,29.6,23.6,30.14,WSW,243,9.0,18.0,78,0.00,,,0.00,Wunderground v.1.15,2013-02-12 12:33:00,
2013-02-12 07:38:00,29.6,23.6,30.14,WSW,257,9.0,18.0,78,0.00,,,0.00,Wunderground v.1.15,2013-02-12 12:38:00,
2013-02-12 07:44:00,29.6,23.6,30.15,WSW,253,11.0,18.0,78,0.00,,,0.00,Wunderground v.1.15,2013-02-12 12:44:00,
2013-02-12 07:50:00,29.6,23.6,30.14,West,265,11.0,11.0,78,0.00,,,0.00,Wunderground v.1.15,2013-02-12 12:50:00,
2013-02-12 07:56:00,29.5,23.5,30.15,WSW,250,9.0,18.0,78,0.00,,,0.00,Wunderground v.1.15,2013-02-12 12:56:00,
2013-02-12 08:02:00,29.5,23.5,30.15,SW,230,9.0,18.0,78,0.00,,,0.00,Wunderground v.1.15,2013-02-12 13:02:00,
2013-02-12 08:07:00,29.5,23.5,30.15,West,263,10.0,18.0,78,0.00,,,0.00,Wunderground v.1.15,2013-02-12 13:07:00,
2013-02-12 08:13:00,29.6,23.6,30.16,WSW,254,9.0,18.0,78,0.00,,,0.00,Wunderground v.1.15,2013-02-12 13:13:00,
2013-02-12 08:19:00,29.6,23.6,30.16,West,259,9.0,18.0,78,0.00,,,0.00,Wunderground v.1.15,2013-02-12 13:19:00,
2013-02-12 08:25:00,29.7,23.7,30.16,WSW,257,7.0,18.0,78,0.00,,,0.00,Wunderground v.1.15,2013-02-12 13:25:00,
2013-02-12 08:30:00,29.7,23.4,30.16,WSW,256,9.0,18.0,77,0.00,,,0.00,Wunderground v.1.15,2013-02-12 13:30:00,
2013-02-12 08:36:00,29.7,23.7,30.16,West,269,10.0,18.0,78,0.00,,,0.00,Wunderground v.1.15,2013-02-12 13:36:00,
2013-02-12 08:42:00,29.7,23.7,30.17,West,265,10.0,18.0,78,0.00,,,0.00,Wunderground v.1.15,2013-02-12 13:42:00,
2013-02-12 08:48:00,29.7,23.7,30.17,WSW,250,11.0,18.0,78,0.00,,,0.00,Wunderground v.1.15,2013-02-12 13:48:00,
2013-02-12 08:54:00,29.8,23.8,30.17,West,261,9.0,18.0,78,0.00,,,0.00,Wunderground v.1.15,2013-02-12 13:54:00,
2013-02-12 09:00:00,29.8,23.8,30.17,WSW,255,7.0,8.0,78,0.00,,,0.00,Wunderground v.1.15,2013-02-12 14:00:00,
2013-02-12 09:06:00,29.8,23.8,30.17,WSW,257,7.0,11.0,78,0.00,,,0.00,Wunderground v.1.15,2013-02-12 14:06:00,
2013-02-12 09:11:00,29.8,23.8,30.17,WSW,249,9.0,12.0,78,0.00,,,0.00,Wunderground v.1.15,2013-02-12 14:11:00,
2013-02-12 09:17:00,29.7,23.7,30.17,WSW,251,8.0,12.0,78,0.00,,,0.00,Wunderground v.1.15,2013-02-12 14:17:00,
2013-02-12 09:23:00,29.7,24.0,30.17,WNW,286,8.0,13.0,79,0.00,,,0.00,Wunderground v.1.15,2013-02-12 14:23:00,
2013-02-12 09:29:00,29.7,24.3,30.17,West,267,8.0,13.0,80,0.00,,,0.00,Wunderground v.1.15,2013-02-12 14:29:00,
2013-02-12 09:34:00,29.7,24.0,30.17,West,275,9.0,17.0,79,0.00,,,0.00,Wunderground v.1.15,2013-02-12 14:34:00,
2013-02-12 09:40:00,29.7,24.0,30.17,West,262,11.0,11.0,79,0.00,,,0.00,Wunderground v.1.15,2013-02-12 14:40:00,
2013-02-12 09:46:00,29.7,24.0,30.17,WNW,293,8.0,14.0,79,0.00,,,0.00,Wunderground v.1.15,2013-02-12 14:46:00,
2013-02-12 09:52:00,29.7,24.0,30.17,WSW,250,10.0,15.0,79,0.00,,,0.00,Wunderground v.1.15,2013-02-12 14:52:00,
2013-02-12 09:57:00,29.8,23.8,30.17,West,267,10.0,15.0,78,0.00,,,0.00,Wunderground v.1.15,2013-02-12 14:57:00,
2013-02-12 10:03:00,29.9,23.9,30.17,WNW,293,9.0,18.0,78,0.00,,,0.00,Wunderground v.1.15,2013-02-12 15:03:00,
2013-02-12 10:09:00,29.9,23.9,30.17,West,276,7.0,18.0,78,0.00,,,0.00,Wunderground v.1.15,2013-02-12 15:09:00,
2013-02-12 10:15:00,29.9,23.9,30.17,West,267,8.0,18.0,78,0.00,,,0.00,Wunderground v.1.15,2013-02-12 15:15:00,
2013-02-12 10:21:00,30.0,24.0,30.18,West,261,9.0,14.0,78,0.00,,,0.00,Wunderground v.1.15,2013-02-12 15:21:00,
2013-02-12 10:26:00,29.9,23.6,30.18,West,261,10.0,19.0,77,0.00,,,0.00,Wunderground v.1.15,2013-02-12 15:26:00,
2013-02-12 10:32:00,29.9,23.9,30.18,West,267,10.0,18.0,78,0.00,,,0.00,Wunderground v.1.15,2013-02-12 15:32:00,
2013-02-12 10:38:00,29.9,23.9,30.18,WNW,294,9.0,18.0,78,0.00,,,0.00,Wunderground v.1.15,2013-02-12 15:38:00,
2013-02-12 10:44:00,29.9,23.9,30.18,West,270,9.0,18.0,78,0.00,,,0.00,Wunderground v.1.15,2013-02-12 15:44:00,
2013-02-12 10:50:00,29.8,23.8,30.19,WNW,284,10.0,10.0,78,0.00,,,0.00,Wunderground v.1.15,2013-02-12 15:50:00,
2013-02-12 10:56:00,29.9,24.2,30.19,WNW,290,8.0,18.0,79,0.00,,,0.00,Wunderground v.1.15,2013-02-12 15:56:00,
2013-02-12 11:02:00,30.0,24.3,30.19,WSW,242,7.0,18.0,79,0.00,,,0.00,Wunderground v.1.15,2013-02-12 16:02:00,
2013-02-12 11:08:00,30.0,24.3,30.18,West,267,7.0,18.0,79,0.00,,,0.00,Wunderground v.1.15,2013-02-12 16:08:00,
2013-02-12 11:14:00,30.0,24.3,30.18,SSW,207,7.0,18.0,79,0.00,,,0.00,Wunderground v.1.15,2013-02-12 16:14:00,
2013-02-12 11:20:00,30.0,24.3,30.18,West,266,6.0,6.0,79,0.00,,,0.00,Wunderground v.1.15,2013-02-12 16:20:00,
2013-02-12 11:26:00,30.1,24.4,30.17,West,265,8.0,18.0,79,0.00,,,0.00,Wunderground v.1.15,2013-02-12 16:26:00,
2013-02-12 11:31:00,30.1,24.4,30.17,WSW,248,10.0,18.0,79,0.00,,,0.00,Wunderground v.1.15,2013-02-12 16:31:00,
2013-02-12 11:37:00,30.1,24.4,30.17,SW,229,9.0,18.0,79,0.00,,,0.00,Wunderground v.1.15,2013-02-12 16:37:00,
2013-02-12 11:43:00,30.2,24.5,30.17,WSW,243,7.0,18.0,79,0.00,,,0.00,Wunderground v.1.15,2013-02-12 16:43:00,
2013-02-12 11:48:00,30.3,24.6,30.17,WSW,250,5.0,18.0,79,0.00,,,0.00,Wunderground v.1.15,2013-02-12 16:48:00,
2013-02-12 11:54:00,30.2,24.2,30.16,West,261,7.0,18.0,78,0.00,,,0.00,Wunderground v.1.15,2013-02-12 16:54:00,
2013-02-12 12:00:00,30.2,24.2,30.17,SW,217,8.0,13.0,78,0.00,,,0.00,Wunderground v.1.15,2013-02-12 17:00:00,
2013-02-12 12:06:00,30.2,23.9,30.15,WSW,251,7.0,13.0,77,0.00,,,0.00,Wunderground v.1.15,2013-02-12 17:06:00,
2013-02-12 12:12:00,30.3,24.3,30.15,SSW,205,6.0,6.0,78,0.00,,,0.00,Wunderground v.1.15,2013-02-12 17:12:00,
2013-02-12 12:17:00,30.4,24.1,30.15,WSW,258,8.0,13.0,77,0.00,,,0.00,Wunderground v.1.15,2013-02-12 17:17:00,
2013-02-12 12:23:00,30.4,24.1,30.15,West,265,9.0,12.0,77,0.00,,,0.00,Wunderground v.1.15,2013-02-12 17:23:00,
2013-02-12 12:29:00,30.4,24.1,30.14,West,261,7.0,12.0,77,0.00,,,0.00,Wunderground v.1.15,2013-02-12 17:29:00,
2013-02-12 12:35:00,30.3,24.0,30.14,SW,236,9.0,11.0,77,0.00,,,0.00,Wunderground v.1.15,2013-02-12 17:35:00,
2013-02-12 12:40:00,30.5,24.5,30.15,West,277,7.0,7.0,78,0.00,,,0.00,Wunderground v.1.15,2013-02-12 17:40:00,
2013-02-12 12:46:00,30.5,24.1,30.16,WSW,252,6.0,8.0,77,0.00,,,0.00,Wunderground v.1.15,2013-02-12 17:46:00,
2013-02-12 12:52:00,30.4,24.1,30.16,WSW,249,7.0,10.0,77,0.00,,,0.00,Wunderground v.1.15,2013-02-12 17:52:00,
2013-02-12 12:58:00,30.5,24.5,30.15,SSW,211,7.0,14.0,78,0.00,,,0.00,Wunderground v.1.15,2013-02-12 17:58:00,
2013-02-12 13:04:00,30.5,24.5,30.16,West,274,7.0,16.0,78,0.00,,,0.00,Wunderground v.1.15,2013-02-12 18:04:00,
2013-02-12 13:09:00,30.5,24.1,30.16,West,265,7.0,16.0,77,0.00,,,0.00,Wunderground v.1.15,2013-02-12 18:09:00,
2013-02-12 13:15:00,30.6,24.2,30.16,WSW,254,6.0,16.0,77,0.00,,,0.00,Wunderground v.1.15,2013-02-12 18:15:00,
2013-02-12 13:21:00,30.6,23.9,30.16,WNW,296,7.0,16.0,76,0.00,,,0.00,Wunderground v.1.15,2013-02-12 18:21:00,
2013-02-12 13:27:00,30.6,24.2,30.16,SW,229,9.0,16.0,77,0.00,,,0.00,Wunderground v.1.15,2013-02-12 18:27:00,
2013-02-12 13:32:00,30.6,24.2,30.15,WSW,246,9.0,16.0,77,0.00,,,0.00,Wunderground v.1.15,2013-02-12 18:32:00,
2013-02-12 13:38:00,30.6,24.2,30.14,WSW,252,7.0,16.0,77,0.00,,,0.00,Wunderground v.1.15,2013-02-12 18:38:00,
2013-02-12 13:44:00,30.6,24.2,30.13,West,265,7.0,16.0,77,0.00,,,0.00,Wunderground v.1.15,2013-02-12 18:44:00,
2013-02-12 13:50:00,30.7,24.3,30.11,West,272,7.0,7.0,77,0.00,,,0.00,Wunderground v.1.15,2013-02-12 18:50:00,
2013-02-12 13:56:00,30.6,24.6,30.11,West,275,4.0,16.0,78,0.00,,,0.00,Wunderground v.1.15,2013-02-12 18:56:00,
2013-02-12 14:02:00,30.6,24.9,30.10,NW,307,3.0,16.0,79,0.00,,,0.00,Wunderground v.1.15,2013-02-12 19:02:00,
2013-02-12 14:08:00,30.5,24.8,30.09,West,281,3.0,16.0,79,0.00,,,0.00,Wunderground v.1.15,2013-02-12 19:08:00,
2013-02-12 14:14:00,30.3,24.9,30.09,WNW,292,3.0,16.0,80,0.00,,,0.00,Wunderground v.1.15,2013-02-12 19:14:00,
2013-02-12 14:20:00,30.3,24.9,30.09,NW,305,2.0,2.0,80,0.00,,,0.00,Wunderground v.1.15,2013-02-12 19:20:00,
2013-02-12 14:25:00,30.3,24.9,30.09,WNW,286,2.0,16.0,80,0.00,,,0.00,Wunderground v.1.15,2013-02-12 19:25:00,
2013-02-12 14:31:00,30.2,25.1,30.08,NNE,12,3.0,16.0,81,0.00,,,0.00,Wunderground v.1.15,2013-02-12 19:31:00,
2013-02-12 14:37:00,30.3,25.5,30.07,North,355,3.0,16.0,82,0.00,,,0.00,Wunderground v.1.15,2013-02-12 19:37:00,
2013-02-12 14:43:00,30.4,25.6,30.07,NW,315,2.0,16.0,82,0.00,,,0.00,Wunderground v.1.15,2013-02-12 19:43:00,
2013-02-12 14:49:00,30.4,25.3,30.08,NW,304,3.0,16.0,81,0.00,,,0.00,Wunderground v.1.15,2013-02-12 19:49:00,
2013-02-12 14:55:00,30.4,25.3,30.08,WSW,251,3.0,16.0,81,0.00,,,0.00,Wunderground v.1.15,2013-02-12 19:55:00,
2013-02-12 15:00:00,30.5,25.7,30.09,WNW,299,3.0,3.0,82,0.00,,,0.00,Wunderground v.1.15,2013-02-12 20:00:00,
2013-02-12 15:06:00,30.6,25.5,30.09,West,261,3.0,6.0,81,0.00,,,0.00,Wunderground v.1.15,2013-02-12 20:06:00,
2013-02-12 15:12:00,30.7,25.9,30.09,West,266,4.0,4.0,82,0.00,,,0.00,Wunderground v.1.15,2013-02-12 20:12:00,
2013-02-12 15:18:00,30.9,25.8,30.09,West,275,3.0,4.0,81,0.00,,,0.00,Wunderground v.1.15,2013-02-12 20:18:00,
2013-02-12 15:24:00,31.1,26.0,30.10,WSW,252,2.0,3.0,81,0.00,,,0.00,Wunderground v.1.15,2013-02-12 20:24:00,
2013-02-12 15:30:00,31.2,25.7,30.10,West,259,2.0,2.0,80,0.00,,,0.00,Wunderground v.1.15,2013-02-12 20:30:00,
2013-02-12 15:36:00,31.2,25.7,30.10,WSW,255,3.0,6.0,80,0.00,,,0.00,Wunderground v.1.15,2013-02-12 20:36:00,
2013-02-12 15:41:00,31.2,26.0,30.11,WSW,244,3.0,4.0,81,0.00,,,0.00,Wunderground v.1.15,2013-02-12 20:41:00,
2013-02-12 15:47:00,31.2,25.7,30.11,West,264,4.0,6.0,80,0.00,,,0.00,Wunderground v.1.15,2013-02-12 20:47:00,
2013-02-12 15:53:00,31.3,25.5,30.11,West,273,4.0,6.0,79,0.00,,,0.00,Wunderground v.1.15,2013-02-12 20:53:00,
2013-02-12 15:59:00,31.3,25.5,30.12,WSW,250,3.0,6.0,79,0.00,,,0.00,Wunderground v.1.15,2013-02-12 20:59:00,
2013-02-12 16:05:00,31.4,25.6,30.12,WSW,255,4.0,10.0,79,0.00,,,0.00,Wunderground v.1.15,2013-02-12 21:05:00,
2013-02-12 16:11:00,31.4,25.6,30.12,WSW,257,4.0,10.0,79,0.00,,,0.00,Wunderground v.1.15,2013-02-12 21:11:00,
2013-02-12 16:17:00,31.4,25.6,30.12,WNW,296,4.0,10.0,79,0.00,,,0.00,Wunderground v.1.15,2013-02-12 21:17:00,
2013-02-12 16:22:00,31.3,25.5,30.12,WNW,283,3.0,10.0,79,0.00,,,0.00,Wunderground v.1.15,2013-02-12 21:22:00,
2013-02-12 16:28:00,31.1,25.7,30.12,WNW,288,3.0,10.0,80,0.00,,,0.00,Wunderground v.1.15,2013-02-12 21:28:00,
2013-02-12 16:34:00,31.1,25.7,30.11,WNW,299,3.0,10.0,80,0.00,,,0.00,Wunderground v.1.15,2013-02-12 21:34:00,
2013-02-12 16:40:00,31.1,26.0,30.11,West,263,3.0,3.0,81,0.00,,,0.00,Wunderground v.1.15,2013-02-12 21:40:00,
2013-02-12 16:46:00,31.2,26.0,30.11,WNW,284,2.0,10.0,81,0.00,,,0.00,Wunderground v.1.15,2013-02-12 21:46:00,
2013-02-12 16:51:00,31.3,26.1,30.11,NNW,348,2.0,10.0,81,0.00,,,0.00,Wunderground v.1.15,2013-02-12 21:51:00,
2013-02-12 16:57:00,31.2,25.7,30.11,West,281,2.0,10.0,80,0.00,,,0.00,Wunderground v.1.15,2013-02-12 21:57:00,
2013-02-12 17:03:00,31.3,26.1,30.12,WNW,296,2.0,10.0,81,0.00,,,0.00,Wunderground v.1.15,2013-02-12 22:03:00,
2013-02-12 17:08:00,31.4,26.2,30.11,NW,306,2.0,10.0,81,0.00,,,0.00,Wunderground v.1.15,2013-02-12 22:08:00,
2013-02-12 17:14:00,31.5,26.3,30.11,NW,310,1.0,10.0,81,0.00,,,0.00,Wunderground v.1.15,2013-02-12 22:14:00,
2013-02-12 17:20:00,31.5,26.3,30.12,NNW,340,1.0,10.0,81,0.00,,,0.00,Wunderground v.1.15,2013-02-12 22:20:00,
2013-02-12 17:26:00,31.3,26.1,30.11,NW,325,1.0,10.0,81,0.00,,,0.00,Wunderground v.1.15,2013-02-12 22:26:00,
2013-02-12 17:31:00,31.1,26.0,30.11,WNW,295,1.0,10.0,81,0.00,,,0.00,Wunderground v.1.15,2013-02-12 22:31:00,
2013-02-12 17:37:00,31.0,25.9,30.11,WNW,295,0.0,10.0,81,0.00,,,0.00,Wunderground v.1.15,2013-02-12 22:37:00,
2013-02-12 17:43:00,30.7,25.6,30.11,NNE,12,0.0,10.0,81,0.00,,,0.00,Wunderground v.1.15,2013-02-12 22:43:00,
2013-02-12 17:48:00,30.5,25.7,30.11,NNE,12,0.0,10.0,82,0.00,,,0.00,Wunderground v.1.15,2013-02-12 22:48:00,
2013-02-12 17:54:00,30.2,25.4,30.12,NNE,12,0.0,10.0,82,0.00,,,0.00,Wunderground v.1.15,2013-02-12 22:54:00,
2013-02-12 18:00:00,29.9,25.1,30.12,NNE,12,0.0,0.0,82,0.00,,,0.00,Wunderground v.1.15,2013-02-12 23:00:00,
2013-02-12 18:06:00,29.7,24.9,30.12,NNE,12,0.0,0.0,82,0.00,,,0.00,Wunderground v.1.15,2013-02-12 23:06:00,
2013-02-12 18:11:00,29.4,24.9,30.12,NNE,12,0.0,0.0,83,0.00,,,0.00,Wunderground v.1.15,2013-02-12 23:11:00,
2013-02-12 18:17:00,29.0,24.5,30.12,NNE,12,0.0,0.0,83,0.00,,,0.00,Wunderground v.1.15,2013-02-12 23:17:00,
2013-02-12 18:23:00,28.7,24.2,30.12,NNE,12,0.0,0.0,83,0.00,,,0.00,Wunderground v.1.15,2013-02-12 23:23:00,
2013-02-12 18:29:00,28.4,24.2,30.12,NNE,12,0.0,0.0,84,0.00,,,0.00,Wunderground v.1.15,2013-02-12 23:29:00,
2013-02-12 18:34:00,28.2,24.3,30.12,NNE,12,0.0,0.0,85,0.00,,,0.00,Wunderground v.1.15,2013-02-12 23:34:00,
2013-02-12 18:40:00,28.0,24.1,30.12,NNE,12,0.0,0.0,85,0.00,,,0.00,Wunderground v.1.15,2013-02-12 23:40:00,
2013-02-12 18:46:00,27.7,23.8,30.12,NNE,12,0.0,0.0,85,0.00,,,0.00,Wunderground v.1.15,2013-02-12 23:46:00,
2013-02-12 18:51:00,27.5,23.6,30.12,NNE,12,0.0,0.0,85,0.00,,,0.00,Wunderground v.1.15,2013-02-12 23:51:00,
2013-02-12 18:57:00,27.2,23.6,30.11,NNE,12,0.0,0.0,86,0.00,,,0.00,Wunderground v.1.15,2013-02-12 23:57:00,
2013-02-12 19:03:00,26.9,23.3,30.11,NNE,12,0.0,3.0,86,0.00,,,0.00,Wunderground v.1.15,2013-02-13 00:03:00,
2013-02-12 19:09:00,26.7,23.4,30.11,NNE,12,0.0,3.0,87,0.00,,,0.00,Wunderground v.1.15,2013-02-13 00:09:00,
2013-02-12 19:15:00,26.5,23.2,30.11,NNE,12,0.0,3.0,87,0.00,,,0.00,Wunderground v.1.15,2013-02-13 00:15:00,
2013-02-12 19:21:00,26.3,23.0,30.10,NNE,12,0.0,3.0,87,0.00,,,0.00,Wunderground v.1.15,2013-02-13 00:21:00,
2013-02-12 19:27:00,26.0,22.9,30.10,NNE,12,0.0,3.0,88,0.00,,,0.00,Wunderground v.1.15,2013-02-13 00:27:00,
2013-02-12 19:32:00,26.0,22.9,30.09,NNE,12,0.0,3.0,88,0.00,,,0.00,Wunderground v.1.15,2013-02-13 00:32:00,
2013-02-12 19:38:00,25.8,23.0,30.09,NNE,12,0.0,3.0,89,0.00,,,0.00,Wunderground v.1.15,2013-02-13 00:38:00,
2013-02-12 19:44:00,25.7,22.9,30.09,NNE,12,0.0,3.0,89,0.00,,,0.00,Wunderground v.1.15,2013-02-13 00:44:00,
2013-02-12 19:50:00,25.5,22.7,30.09,NNE,12,0.0,3.0,89,0.00,,,0.00,Wunderground v.1.15,2013-02-13 00:50:00,
2013-02-12 19:56:00,25.5,23.0,30.09,NNE,12,0.0,3.0,90,0.00,,,0.00,Wunderground v.1.15,2013-02-13 00:56:00,
2013-02-12 20:02:00,25.3,22.8,30.08,NNE,12,0.0,3.0,90,0.00,,,0.00,Wunderground v.1.15,2013-02-13 01:02:00,
2013-02-12 20:08:00,25.1,22.6,30.08,NNE,12,0.0,3.0,90,0.00,,,0.00,Wunderground v.1.15,2013-02-13 01:08:00,
2013-02-12 20:13:00,25.0,22.5,30.08,NNE,12,0.0,3.0,90,0.00,,,0.00,Wunderground v.1.15,2013-02-13 01:13:00,
2013-02-12 20:19:00,25.0,22.7,30.08,NNE,12,0.0,3.0,91,0.00,,,0.00,Wunderground v.1.15,2013-02-13 01:19:00,
2013-02-12 20:25:00,25.0,22.7,30.09,NNE,12,0.0,3.0,91,0.00,,,0.00,Wunderground v.1.15,2013-02-13 01:25:00,
2013-02-12 20:31:00,24.9,22.6,30.09,NNE,12,0.0,3.0,91,0.00,,,0.00,Wunderground v.1.15,2013-02-13 01:31:00,
2013-02-12 20:37:00,24.8,22.5,30.09,NNE,12,0.0,3.0,91,0.00,,,0.00,Wunderground v.1.15,2013-02-13 01:37:00,
2013-02-12 20:43:00,24.7,22.4,30.09,NNE,12,0.0,3.0,91,0.00,,,0.00,Wunderground v.1.15,2013-02-13 01:43:00,
2013-02-12 20:48:00,24.5,22.2,30.08,NNE,12,0.0,3.0,91,0.00,,,0.00,Wunderground v.1.15,2013-02-13 01:48:00,
2013-02-12 20:54:00,24.5,22.2,30.08,NNE,12,0.0,3.0,91,0.00,,,0.00,Wunderground v.1.15,2013-02-13 01:54:00,
2013-02-12 21:00:00,24.4,22.2,30.08,NNE,12,0.0,0.0,91,0.00,,,0.00,Wunderground v.1.15,2013-02-13 02:00:00,
2013-02-12 21:06:00,24.3,22.1,30.07,NNE,12,0.0,0.0,91,0.00,,,0.00,Wunderground v.1.15,2013-02-13 02:06:00,
2013-02-12 21:12:00,24.2,22.2,30.07,NNE,12,0.0,0.0,92,0.00,,,0.00,Wunderground v.1.15,2013-02-13 02:12:00,
2013-02-12 21:18:00,24.0,22.0,30.07,NNE,12,0.0,0.0,92,0.00,,,0.00,Wunderground v.1.15,2013-02-13 02:18:00,
2013-02-12 21:23:00,23.9,21.7,30.07,NNE,12,0.0,0.0,91,0.00,,,0.00,Wunderground v.1.15,2013-02-13 02:23:00,
2013-02-12 21:29:00,23.7,21.7,30.07,NNE,12,0.0,0.0,92,0.00,,,0.00,Wunderground v.1.15,2013-02-13 02:29:00,
2013-02-12 21:35:00,23.6,21.6,30.06,NNE,12,0.0,0.0,92,0.00,,,0.00,Wunderground v.1.15,2013-02-13 02:35:00,
2013-02-12 21:41:00,23.4,21.4,30.06,NNE,12,0.0,0.0,92,0.00,,,0.00,Wunderground v.1.15,2013-02-13 02:41:00,
2013-02-12 21:47:00,23.4,21.4,30.06,NNE,12,0.0,0.0,92,0.00,,,0.00,Wunderground v.1.15,2013-02-13 02:47:00,
2013-02-12 21:52:00,23.3,21.3,30.07,NNE,12,0.0,0.0,92,0.00,,,0.00,Wunderground v.1.15,2013-02-13 02:52:00,
2013-02-12 21:58:00,23.2,21.2,30.07,NNE,12,0.0,0.0,92,0.00,,,0.00,Wunderground v.1.15,2013-02-13 02:58:00,
2013-02-12 22:04:00,23.1,21.1,30.06,NNE,12,0.0,0.0,92,0.00,,,0.00,Wunderground v.1.15,2013-02-13 03:04:00,
2013-02-12 22:10:00,23.1,21.1,30.06,NNE,12,0.0,0.0,92,0.00,,,0.00,Wunderground v.1.15,2013-02-13 03:10:00,
2013-02-12 22:16:00,23.0,21.0,30.06,NNE,12,0.0,0.0,92,0.00,,,0.00,Wunderground v.1.15,2013-02-13 03:16:00,
2013-02-12 22:21:00,22.8,20.8,30.06,NNE,12,0.0,0.0,92,0.00,,,0.00,Wunderground v.1.15,2013-02-13 03:21:00,
2013-02-12 22:27:00,22.7,20.7,30.06,NNE,12,0.0,0.0,92,0.00,,,0.00,Wunderground v.1.15,2013-02-13 03:27:00,
2013-02-12 22:33:00,22.5,20.5,30.06,NNE,12,0.0,0.0,92,0.00,,,0.00,Wunderground v.1.15,2013-02-13 03:33:00,
2013-02-12 22:38:00,22.4,20.7,30.06,NNE,12,0.0,0.0,93,0.00,,,0.00,Wunderground v.1.15,2013-02-13 03:38:00,
2013-02-12 22:44:00,22.3,20.6,30.05,NNE,12,0.0,0.0,93,0.00,,,0.00,Wunderground v.1.15,2013-02-13 03:44:00,
2013-02-12 22:50:00,22.2,20.5,30.05,NNE,12,0.0,0.0,93,0.00,,,0.00,Wunderground v.1.15,2013-02-13 03:50:00,
2013-02-12 22:56:00,22.1,20.4,30.05,NNE,12,0.0,0.0,93,0.00,,,0.00,Wunderground v.1.15,2013-02-13 03:56:00,
2013-02-12 23:01:00,22.0,20.3,30.05,NNE,12,0.0,0.0,93,0.00,,,0.00,Wunderground v.1.15,2013-02-13 04:01:00,
2013-02-12 23:07:00,21.9,20.2,30.05,NNE,12,0.0,0.0,93,0.00,,,0.00,Wunderground v.1.15,2013-02-13 04:07:00,
2013-02-12 23:13:00,21.8,20.1,30.05,NNE,12,0.0,0.0,93,0.00,,,0.00,Wunderground v.1.15,2013-02-13 04:13:00,
2013-02-12 23:19:00,21.9,20.2,30.05,NNE,12,0.0,0.0,93,0.00,,,0.00,Wunderground v.1.15,2013-02-13 04:19:00,
2013-02-12 23:24:00,22.2,20.7,30.05,NNE,12,0.0,0.0,94,0.00,,,0.00,Wunderground v.1.15,2013-02-13 04:24:00,
2013-02-12 23:30:00,22.5,21.0,30.06,NNE,12,0.0,0.0,94,0.00,,,0.00,Wunderground v.1.15,2013-02-13 04:30:00,
2013-02-12 23:36:00,22.7,21.2,30.06,NNE,12,0.0,0.0,94,0.00,,,0.00,Wunderground v.1.15,2013-02-13 04:36:00,
2013-02-12 23:41:00,23.0,21.5,30.05,NNE,12,0.0,0.0,94,0.00,,,0.00,Wunderground v.1.15,2013-02-13 04:41:00,
2013-02-12 23:47:00,23.4,21.9,30.05,NNE,12,0.0,0.0,94,0.00,,,0.00,Wunderground v.1.15,2013-02-13 04:47:00,
2013-02-12 23:53:00,23.9,22.4,30.05,SSE,158,0.0,2.0,94,0.00,,,0.00,Wunderground v.1.15,2013-02-13 04:53:00,
2013-02-12 23:58:00,24.4,23.2,30.05,SSE,158,0.0,2.0,95,0.00,,,0.00,Wunderground v.1.15,2013-02-13 04:58:00,